| time (UTC) | temp F | wind direction | speed MPH | gust MPH | rain 1hr in | rain 24hr in | rain mn in | humidity % | barometer mb |
| 20260509182042 | 60 | 62 | 4.0 | 6.0 | 0.00 | 0.00 | 0.00 | 66 | 1018.8 |
| 20260509181039 | 60 | 29 | 5.0 | 7.0 | 0.00 | 0.00 | 0.00 | 62 | 1018.9 |
| 20260509180036 | 60 | 84 | 5.0 | 6.0 | 0.00 | 0.00 | 0.00 | 62 | 1019.0 |
| 20260509175033 | 61 | 10 | 6.0 | 8.0 | 0.00 | 0.00 | 0.00 | 61 | 1018.6 |
| 20260509174030 | 61 | 54 | 4.0 | 6.0 | 0.00 | 0.00 | 0.00 | 59 | 1019.0 |
| 20260509173027 | 61 | 81 | 4.0 | 6.0 | 0.00 | 0.00 | 0.00 | 62 | 1019.0 |
| 20260509172025 | 62 | 40 | 7.0 | 9.0 | 0.00 | 0.00 | 0.00 | 58 | 1019.0 |
| 20260509171022 | 63 | 36 | 5.0 | 8.0 | 0.00 | 0.00 | 0.00 | 55 | 1018.9 |
| 20260509170019 | 63 | 30 | 6.0 | 8.0 | 0.00 | 0.00 | 0.00 | 55 | 1018.8 |
| 20260509165016 | 62 | 7 | 4.0 | 7.0 | 0.00 | 0.00 | 0.00 | 57 | 1018.9 |
| 20260509164043 | 63 | 38 | 6.0 | 9.0 | 0.00 | 0.00 | 0.00 | 56 | 1018.8 |
| 20260509163041 | 63 | 30 | 7.0 | 10.0 | 0.00 | 0.00 | 0.00 | 54 | 1018.8 |
| 20260509162038 | 63 | 34 | 7.0 | 8.0 | 0.00 | 0.00 | 0.00 | 56 | 1018.7 |
| 20260509161055 | 62 | 47 | 4.0 | 4.0 | 0.00 | 0.00 | 0.00 | 55 | 1018.8 |
| 20260509160033 | 63 | 71 | 5.0 | 8.0 | 0.00 | 0.00 | 0.00 | 53 | 1018.8 |
| 20260509155110 | 62 | 15 | 4.0 | 8.0 | 0.00 | 0.00 | 0.00 | 54 | 1018.8 |
| 20260509154027 | 63 | 39 | 5.0 | 6.0 | 0.00 | 0.00 | 0.00 | 53 | 1019.0 |
| 20260509153024 | 63 | 52 | 7.0 | 8.0 | 0.00 | 0.00 | 0.00 | 54 | 1019.1 |
| 20260509152021 | 63 | 79 | 4.0 | 6.0 | 0.00 | 0.00 | 0.00 | 54 | 1018.9 |
| 20260509151019 | 63 | 57 | 4.0 | 7.0 | 0.00 | 0.00 | 0.00 | 54 | 1019.1 |
| 20260509150016 | 63 | 43 | 6.0 | 9.0 | 0.00 | 0.00 | 0.00 | 55 | 1019.2 |
| 20260509145103 | 64 | 50 | 6.0 | 9.0 | 0.00 | 0.00 | 0.00 | 53 | 1019.1 |
| 20260509144040 | 62 | 49 | 6.0 | 8.0 | 0.00 | 0.00 | 0.00 | 55 | 1019.5 |
| 20260509143058 | 63 | 38 | 7.0 | 9.0 | 0.00 | 0.00 | 0.00 | 54 | 1019.3 |
| 20260509142035 | 63 | 46 | 3.0 | 6.0 | 0.00 | 0.00 | 0.00 | 55 | 1019.6 |
| 20260509141032 | 62 | 88 | 5.0 | 8.0 | 0.00 | 0.00 | 0.00 | 55 | 1019.7 |
| 20260509140049 | 63 | 39 | 8.0 | 13.0 | 0.00 | 0.00 | 0.00 | 55 | 1019.5 |
| 20260509135026 | 62 | 43 | 3.0 | 4.0 | 0.00 | 0.00 | 0.00 | 55 | 1019.6 |
| 20260509134024 | 62 | 44 | 5.0 | 8.0 | 0.00 | 0.00 | 0.00 | 57 | 1019.9 |
| 20260509133021 | 62 | 60 | 6.0 | 8.0 | 0.00 | 0.00 | 0.00 | 58 | 1019.9 |
| 20260509132018 | 62 | 55 | 9.0 | 13.0 | 0.00 | 0.00 | 0.00 | 57 | 1019.9 |
| 20260509131016 | 62 | 33 | 5.0 | 8.0 | 0.00 | 0.00 | 0.00 | 54 | 1020.0 |
| 20260509130043 | 64 | 86 | 4.0 | 7.0 | 0.00 | 0.00 | 0.00 | 52 | 1020.2 |
| 20260509125040 | 61 | 85 | 2.0 | 3.0 | 0.00 | 0.00 | 0.00 | 57 | 1020.3 |
| 20260509124037 | 64 | 178 | 2.0 | 2.0 | 0.00 | 0.00 | 0.00 | 52 | 1020.3 |
| 20260509123034 | 66 | 87 | 3.0 | 4.0 | 0.00 | 0.00 | 0.00 | 51 | 1020.4 |
| 20260509122032 | 63 | 169 | 2.0 | 3.0 | 0.00 | 0.00 | 0.00 | 55 | 1020.5 |
| 20260509121029 | 65 | 145 | 4.0 | 8.0 | 0.00 | 0.00 | 0.00 | 52 | 1020.5 |
| 20260509120026 | 63 | 137 | 2.0 | 4.0 | 0.00 | 0.00 | 0.00 | 55 | 1020.7 |
| 20260509115024 | 63 | 153 | 3.0 | 6.0 | 0.00 | 0.00 | 0.00 | 56 | 1020.8 |
| 20260509114021 | 62 | 162 | 2.0 | 4.0 | 0.00 | 0.00 | 0.00 | 57 | 1020.8 |
| 20260509113019 | 62 | 100 | 3.0 | 7.0 | 0.00 | 0.00 | 0.00 | 58 | 1020.7 |
| 20260509112016 | 62 | 165 | 4.0 | 6.0 | 0.00 | 0.00 | 0.00 | 59 | 1020.7 |
| 20260509111044 | 62 | 172 | 3.0 | 6.0 | 0.00 | 0.00 | 0.00 | 58 | 1020.8 |
| 20260509110040 | 62 | 157 | 4.0 | 6.0 | 0.00 | 0.00 | 0.00 | 60 | 1020.8 |
| 20260509105058 | 63 | 125 | 6.0 | 10.0 | 0.00 | 0.00 | 0.00 | 56 | 1020.8 |
| 20260509104035 | 61 | 166 | 3.0 | 4.0 | 0.00 | 0.00 | 0.00 | 59 | 1021.0 |
| 20260509103033 | 61 | 143 | 4.0 | 7.0 | 0.00 | 0.00 | 0.00 | 58 | 1021.0 |
| 20260509102030 | 62 | 127 | 3.0 | 6.0 | 0.00 | 0.00 | 0.00 | 56 | 1021.0 |
| 20260509101027 | 62 | 96 | 5.0 | 9.0 | 0.00 | 0.00 | 0.00 | 56 | 1021.2 |
| 20260509100025 | 62 | 199 | 4.0 | 6.0 | 0.00 | 0.00 | 0.00 | 56 | 1021.3 |
| 20260509095021 | 61 | 143 | 4.0 | 7.0 | 0.00 | 0.00 | 0.00 | 61 | 1021.3 |
| 20260509094019 | 62 | 68 | 2.0 | 2.0 | 0.00 | 0.00 | 0.00 | 63 | 1021.3 |
| 20260509093016 | 61 | 83 | 2.0 | 3.0 | 0.00 | 0.00 | 0.00 | 64 | 1021.3 |
| 20260509092043 | 60 | 130 | 2.0 | 3.0 | 0.00 | 0.00 | 0.00 | 69 | 1021.4 |
| 20260509091041 | 61 | 118 | 5.0 | 9.0 | 0.00 | 0.00 | 0.00 | 63 | 1021.3 |
| 20260509090038 | 60 | 172 | 4.0 | 8.0 | 0.00 | 0.00 | 0.00 | 68 | 1021.2 |
| 20260509085035 | 60 | 149 | 1.0 | 2.0 | 0.00 | 0.00 | 0.00 | 67 | 1021.2 |
| 20260509084032 | 59 | 124 | 2.0 | 4.0 | 0.00 | 0.00 | 0.00 | 67 | 1021.4 |
| 20260509083049 | 59 | 122 | 1.0 | 3.0 | 0.00 | 0.00 | 0.00 | 68 | 1021.3 |
| 20260509082026 | 60 | 159 | 2.0 | 3.0 | 0.00 | 0.00 | 0.00 | 68 | 1021.4 |
| 20260509081043 | 58 | 132 | 2.0 | 3.0 | 0.00 | 0.00 | 0.00 | 70 | 1021.4 |
| 20260509080020 | 58 | 152 | 3.0 | 4.0 | 0.00 | 0.00 | 0.00 | 71 | 1021.5 |
| 20260509075018 | 59 | 132 | 3.0 | 7.0 | 0.00 | 0.00 | 0.00 | 71 | 1021.6 |
| 20260509074015 | 58 | 125 | 2.0 | 3.0 | 0.00 | 0.00 | 0.00 | 73 | 1021.4 |
| 20260509073043 | 57 | 130 | 3.0 | 6.0 | 0.00 | 0.00 | 0.00 | 73 | 1021.5 |
| 20260509072100 | 57 | 80 | 3.0 | 3.0 | 0.00 | 0.00 | 0.00 | 75 | 1021.5 |
| 20260509071037 | 57 | 159 | 2.0 | 3.0 | 0.00 | 0.00 | 0.00 | 74 | 1021.5 |
| 20260509070034 | 57 | 143 | 3.0 | 4.0 | 0.00 | 0.00 | 0.00 | 75 | 1021.6 |
| 20260509065031 | 57 | 90 | 3.0 | 7.0 | 0.00 | 0.00 | 0.00 | 75 | 1021.7 |
| 20260509064029 | 56 | 131 | 3.0 | 4.0 | 0.00 | 0.00 | 0.00 | 75 | 1021.6 |
| 20260509063026 | 56 | 114 | 3.0 | 3.0 | 0.00 | 0.00 | 0.00 | 77 | 1021.5 |
| 20260509062023 | 56 | 136 | 1.0 | 2.0 | 0.00 | 0.00 | 0.00 | 78 | 1021.6 |
| 20260509061020 | 56 | 0.0 | 0.0 | 0.00 | 0.00 | 0.00 | 78 | 1021.7 | |
| 20260509060018 | 55 | 150 | 2.0 | 4.0 | 0.00 | 0.00 | 0.00 | 80 | 1021.6 |
| 20260509055044 | 55 | 210 | 3.0 | 6.0 | 0.00 | 0.00 | 0.00 | 80 | 1021.6 |
| 20260509054042 | 55 | 283 | 2.0 | 2.0 | 0.00 | 0.00 | 0.00 | 82 | 1021.6 |
| 20260509053039 | 54 | 0.0 | 0.0 | 0.00 | 0.00 | 0.00 | 86 | 1021.5 | |
| 20260509052036 | 52 | 0.0 | 0.0 | 0.00 | 0.00 | 0.00 | 91 | 1021.4 | |
| 20260509051034 | 50 | 0.0 | 0.0 | 0.00 | 0.00 | 0.00 | 92 | 1021.3 | |
| 20260509050031 | 49 | 0.0 | 0.0 | 0.00 | 0.00 | 0.00 | 93 | 1021.1 | |
| 20260509045028 | 48 | 0.0 | 0.0 | 0.00 | 0.00 | 0.00 | 93 | 1021.2 | |
| 20260509044025 | 47 | 0.0 | 0.0 | 0.00 | 0.00 | 0.00 | 93 | 1021.1 | |
| 20260509043043 | 47 | 0.0 | 0.0 | 0.00 | 0.00 | 0.00 | 92 | 1021.0 | |
| 20260509042020 | 47 | 0.0 | 0.0 | 0.00 | 0.00 | 0.00 | 92 | 1021.1 | |
| 20260509041017 | 46 | 0.0 | 0.0 | 0.00 | 0.00 | 0.00 | 91 | 1021.1 | |
| 20260509040045 | 46 | 0.0 | 0.0 | 0.00 | 0.00 | 0.00 | 90 | 1020.8 | |
| 20260509035042 | 47 | 0.0 | 0.0 | 0.00 | 0.00 | 0.00 | 89 | 1020.9 | |
| 20260509034039 | 47 | 0.0 | 0.0 | 0.00 | 0.00 | 0.00 | 88 | 1021.0 | |
| 20260509033037 | 49 | 0.0 | 0.0 | 0.00 | 0.00 | 0.00 | 87 | 1020.8 | |
| 20260509032033 | 50 | 0.0 | 0.0 | 0.00 | 0.00 | 0.00 | 88 | 1020.8 | |
| 20260509031030 | 50 | 0.0 | 0.0 | 0.00 | 0.00 | 0.00 | 88 | 1020.9 | |
| 20260509030028 | 50 | 0.0 | 0.0 | 0.00 | 0.00 | 0.00 | 88 | 1021.0 | |
| 20260509025025 | 50 | 0.0 | 0.0 | 0.00 | 0.00 | 0.00 | 88 | 1021.0 | |
| 20260509024042 | 49 | 0.0 | 0.0 | 0.00 | 0.00 | 0.00 | 88 | 1021.0 | |
| 20260509023020 | 49 | 0.0 | 0.0 | 0.00 | 0.00 | 0.00 | 88 | 1020.9 | |
| 20260509022017 | 49 | 0.0 | 0.0 | 0.00 | 0.00 | 0.00 | 87 | 1021.0 | |
| 20260509021045 | 50 | 0.0 | 0.0 | 0.00 | 0.00 | 0.00 | 86 | 1021.0 | |
| 20260509020042 | 51 | 0.0 | 0.0 | 0.00 | 0.00 | 0.00 | 84 | 1021.0 | |
| 20260509015039 | 51 | 0.0 | 0.0 | 0.00 | 0.00 | 0.00 | 84 | 1021.1 | |
| 20260509014056 | 52 | 0.0 | 0.0 | 0.00 | 0.00 | 0.00 | 83 | 1021.1 | |
| 20260509013033 | 52 | 0.0 | 0.0 | 0.00 | 0.00 | 0.00 | 83 | 1021.1 | |
| 20260509012031 | 52 | 0.0 | 0.0 | 0.00 | 0.00 | 0.00 | 83 | 1021.0 | |
| 20260509011028 | 53 | 0.0 | 0.0 | 0.00 | 0.00 | 0.00 | 82 | 1021.2 | |
| 20260509010045 | 53 | 0.0 | 0.0 | 0.00 | 0.00 | 0.00 | 82 | 1020.9 | |
| 20260509005022 | 53 | 0.0 | 0.0 | 0.00 | 0.00 | 0.00 | 81 | 1021.2 | |
| 20260509004019 | 53 | 0.0 | 0.0 | 0.00 | 0.00 | 0.00 | 81 | 1021.3 | |
| 20260509003016 | 53 | 0.0 | 0.0 | 0.00 | 0.00 | 0.00 | 80 | 1021.2 | |
| 20260509002044 | 53 | 0.0 | 0.0 | 0.00 | 0.00 | 0.00 | 80 | 1021.1 | |
| 20260509001041 | 53 | 0.0 | 0.0 | 0.00 | 0.00 | 0.00 | 80 | 1021.0 | |
| 20260509000059 | 53 | 0.0 | 0.0 | 0.00 | 0.00 | 0.00 | 80 | 1020.9 | |
| 20260508235056 | 53 | 0.0 | 0.0 | 0.00 | 0.00 | 0.00 | 79 | 1020.8 | |
| 20260508234033 | 53 | 0.0 | 0.0 | 0.00 | 0.00 | 0.00 | 80 | 1020.9 | |
| 20260508233030 | 53 | 0.0 | 0.0 | 0.00 | 0.00 | 0.00 | 79 | 1020.9 | |
| 20260508232028 | 53 | 0.0 | 0.0 | 0.00 | 0.00 | 0.00 | 79 | 1020.8 | |
| 20260508231024 | 54 | 0.0 | 0.0 | 0.00 | 0.00 | 0.00 | 77 | 1020.9 | |
| 20260508230022 | 54 | 0.0 | 0.0 | 0.00 | 0.00 | 0.00 | 77 | 1020.8 | |
| 20260508225019 | 52 | 267 | 0.0 | 2.0 | 0.00 | 0.00 | 0.00 | 81 | 1020.8 |
| 20260508224016 | 51 | 0.0 | 0.0 | 0.00 | 0.00 | 0.00 | 84 | 1020.9 | |
| 20260508223044 | 50 | 267 | 0.0 | 1.0 | 0.00 | 0.00 | 0.00 | 85 | 1020.8 |
| 20260508222121 | 50 | 0.0 | 0.0 | 0.00 | 0.00 | 0.00 | 84 | 1020.9 | |
| 20260508221038 | 51 | 0.0 | 0.0 | 0.00 | 0.00 | 0.00 | 83 | 1020.8 | |
| 20260508220035 | 51 | 0.0 | 0.0 | 0.00 | 0.00 | 0.00 | 82 | 1020.7 | |
| 20260508215032 | 52 | 0.0 | 0.0 | 0.00 | 0.00 | 0.00 | 81 | 1020.8 | |
| 20260508214030 | 52 | 0.0 | 0.0 | 0.00 | 0.00 | 0.00 | 81 | 1020.9 | |
| 20260508213027 | 51 | 0.0 | 0.0 | 0.00 | 0.00 | 0.00 | 80 | 1020.6 | |
| 20260508212024 | 51 | 0.0 | 0.0 | 0.00 | 0.00 | 0.00 | 79 | 1020.7 | |
| 20260508211021 | 52 | 0.0 | 0.0 | 0.00 | 0.00 | 0.00 | 78 | 1020.8 | |
| 20260508210018 | 52 | 0.0 | 0.0 | 0.00 | 0.00 | 0.00 | 78 | 1020.8 | |
| 20260508205016 | 52 | 266 | 1.0 | 1.0 | 0.00 | 0.00 | 0.00 | 78 | 1020.8 |
| 20260508204043 | 52 | 266 | 1.0 | 2.0 | 0.00 | 0.00 | 0.00 | 77 | 1020.8 |
| 20260508203040 | 53 | 0.0 | 0.0 | 0.00 | 0.00 | 0.00 | 77 | 1020.7 | |
| 20260508202038 | 53 | 0.0 | 0.0 | 0.00 | 0.00 | 0.00 | 77 | 1020.7 | |
| 20260508201055 | 54 | 0.0 | 0.0 | 0.00 | 0.00 | 0.00 | 75 | 1020.7 | |
| 20260508200052 | 54 | 0.0 | 0.0 | 0.00 | 0.00 | 0.00 | 73 | 1020.6 | |
| 20260508195029 | 55 | 0.0 | 0.0 | 0.00 | 0.00 | 0.00 | 70 | 1020.7 | |
| 20260508194026 | 54 | 0.0 | 0.0 | 0.00 | 0.00 | 0.00 | 69 | 1020.5 | |
| 20260508193023 | 55 | 266 | 1.0 | 2.0 | 0.00 | 0.00 | 0.00 | 68 | 1020.5 |
| 20260508191018 | 56 | 266 | 1.0 | 2.0 | 0.00 | 0.00 | 0.00 | 65 | 1020.4 |
| 20260508190015 | 58 | 268 | 1.0 | 2.0 | 0.00 | 0.00 | 0.00 | 63 | 1020.1 |
| 20260508185042 | 58 | 271 | 1.0 | 2.0 | 0.00 | 0.00 | 0.00 | 61 | 1020.0 |
| 20260508184040 | 60 | 272 | 1.0 | 2.0 | 0.00 | 0.00 | 0.00 | 60 | 1020.0 |
| 20260508183037 | 62 | 0.0 | 0.0 | 0.00 | 0.00 | 0.00 | 54 | 1020.0 |